Location: Newark
(34.4697°S, 57.8467°W)
Time: 15:52:10
(UTC+00:00)

N. Korean satellite - Pass Details

Date: 28 July 2019
Orbit: 457 x 507 km, 97.2° (Epoch: 20 August)

Event Time Altitude Azimuth Distance (km) Brightness Sun altitude
Rises 22:22:30 0° 182° (S) 2,516 10.1 -15.5°
Reaches altitude 10° 22:24:45 10° 194° (SSW) 1,630 9.3 -15.9°
Maximum altitude 22:27:44 27° 253° (WSW) 935 8.7 -16.5°
Drops below altitude 10° 22:30:41 10° 312° (NW) 1,611 10.1 -17.1°
Sets 22:32:55 0° 324° (NW) 2,480 10.9 -17.6°
